#timestamp,LO_Frequency,Hit,StdDev 
1649671215.6,286047004.1,N
1649671235.5,286047003.1,N
1649671255.3,286047003.2,N
1649671275.1,286047004.2,N
1649671295.9,286047004.2,N
1649671315.7,286047004.3,N
1649671335.6,286047002.0,N
1649671355.4,286046998.2,N
1649671375.2,286046999.6,N
1649671395.1,286046998.2,N
1649671396.0,286046998.2,N
1649671415.8,286047000.2,N
1649671435.7,286047000.3,N
1649671455.5,286047002.6,N
1649671475.3,286047000.3,N
1649671495.2,286046999.7,N
1649671515.0,286047000.2,N
1649671515.9,286047000.2,N
1649671535.8,286047002.7,N
1649671555.6,286047002.0,N
1649671575.4,286047001.9,N
1649671595.3,286047001.3,N
1649671615.1,286047004.4,N
1649671635.8,286047004.2,N
1649671655.7,286047004.0,N
1649671675.5,286047003.1,N
1649671695.4,286047004.7,N
1649671715.2,286047003.8,N
1649671735.0,286047001.5,N
1649671735.9,286047001.5,N
1649671755.8,286047004.3,N
1649671775.6,286047002.4,N
1649671795.4,286047002.3,N
1649671815.3,286047002.0,N
1649671835.1,286047001.9,N
1649671855.9,286047001.3,N
1649671875.7,286047000.3,N
1649671895.5,286046999.6,N
1649671915.4,286046999.3,N
1649671935.2,286047000.0,N
1649671955.1,286047002.8,N
1649671956.0,286047002.8,N
1649671975.8,286046999.8,N
1649671995.6,286047002.1,N
1649672015.5,286046999.7,N
1649672035.3,286047004.4,N
1649672055.1,286047001.6,N
1649672075.9,286047003.0,N
1649672095.7,286047003.0,N
1649672115.6,286047001.4,N
1649672135.4,286047002.7,N
1649672155.2,286047000.0,N
1649672175.1,286047001.7,N
1649672176.0,286047001.7,N
1649672195.8,286046999.9,N
1649672215.7,286047003.5,N
1649672235.5,286047004.4,N
1649672255.3,286047001.6,N
1649672275.2,286046999.8,N
1649672295.0,286047001.5,N
1649672295.9,286047001.5,N
1649672315.8,286046998.2,N
1649672335.6,286046998.7,N
1649672355.4,286047001.1,N
1649672375.3,286047002.2,N
1649672395.1,286047001.4,N
1649672415.8,286047004.0,N
1649672435.7,286047002.2,N
1649672455.5,286047000.1,N
1649672475.4,286047004.0,N
1649672495.2,286047003.9,N
1649672515.0,286047003.8,N
1649672515.9,286047003.8,N
1649672535.8,286047004.1,N
1649672555.6,286047003.8,N
1649672575.5,286047003.4,N
1649672595.3,286047004.3,N
1649672615.1,286047004.2,N
1649672635.9,286047001.6,N
1649672655.7,286047004.2,N
1649672675.5,286047002.0,N
1649672695.4,286047004.1,N
1649672715.2,286047003.7,N
1649672735.1,286047003.6,N
1649672736.0,286047003.6,N
1649672755.8,286047001.5,N
1649672775.6,286046999.8,N
1649672795.5,286047004.4,N
1649672815.3,286047004.1,N
1649672835.1,286047004.0,N
1649672855.9,286047001.2,N
1649672875.7,286047000.2,N
1649672895.6,286047000.1,N
1649672915.4,286047002.0,N
1649672935.2,286047001.2,N
1649672955.1,286047001.5,N
1649672956.0,286047001.5,N
1649672975.8,286047002.4,N
1649672995.6,286047001.7,N
1649673015.5,286047000.0,N
1649673035.3,286046998.9,N
1649673055.2,286046998.6,N
1649673075.9,286046998.3,N
1649673095.7,286047000.8,N
1649673115.6,286047001.3,N
1649673135.4,286047006.0,Y
1649673155.2,286047002.7,P
1649673175.1,286047002.2,P
1649673176.0,286047002.2,P
1649673195.8,286047004.2,Y
1649673215.7,286046998.7,P
1649673235.5,286046999.0,N
1649673255.3,286046998.8,N
1649673275.2,286047001.1,N
1649673295.0,286047000.9,N
1649673295.9,286047000.9,N
1649673315.8,286046997.0,N
1649673335.6,286046997.5,N
1649673355.4,286046998.9,N
1649673375.3,286046996.9,N
1649673395.1,286047000.1,N
1649673415.8,286046998.9,N
1649673435.7,286046996.7,N
1649673455.5,286046997.7,N
1649673475.4,286046997.4,N
1649673495.2,286046999.2,N
1649673515.0,286046997.2,N
1649673515.9,286046997.2,N
1649673535.8,286046995.4,N
1649673555.6,286046996.5,N
1649673575.4,286046996.5,N
1649673595.3,286046996.7,N
1649673615.1,286046997.3,N
1649673635.9,286046996.1,N
1649673655.7,286046995.0,N
1649673675.5,286046991.7,Y
1649673695.4,286046997.3,P
1649673715.2,286046999.3,N
1649673735.0,286047000.0,N
1649673736.0,286047000.0,N
1649673755.8,286047002.2,N
1649673775.6,286047004.2,N
1649673795.5,286047001.5,N
1649673815.3,286047004.0,N
1649673835.1,286047005.8,N
1649673855.9,286047003.2,N
1649673875.7,286047003.6,N
1649673895.6,286047005.7,N
1649673915.4,286047003.1,N
1649673935.2,286047004.1,N
1649673955.1,286047003.5,N
1649673956.0,286047003.5,N
1649673975.8,286047004.3,N
1649673995.6,286047002.3,N
1649674015.5,286047002.1,N
1649674035.3,286047001.6,N
1649674055.2,286047003.1,N
1649674075.9,286047002.6,N
1649674095.7,286046999.8,N
1649674115.6,286047002.7,N
1649674135.4,286046999.7,N
1649674155.2,286046999.9,N
1649674175.1,286047000.3,N
1649674176.0,286047000.3,N
1649674195.8,286047002.4,N
1649674215.7,286047000.0,N
1649674235.5,286047000.0,N
1649674255.3,286046999.8,N
1649674275.2,286046998.4,N
1649674295.0,286046998.7,N
1649674295.9,286046998.7,N
1649674315.7,286047000.0,N
1649674335.6,286047001.1,N
1649674355.4,286047002.7,N
1649674375.3,286047002.7,N
1649674395.1,286047001.5,N
1649674415.8,286047001.1,N
1649674435.7,286046998.1,N
1649674455.5,286046998.7,N
1649674475.4,286046998.4,N
1649674495.2,286047000.6,N
1649674515.0,286047000.4,N
1649674515.9,286047000.4,N
1649674535.8,286047002.4,N
1649674555.6,286046999.9,N
1649674575.4,286047001.0,N
1649674595.3,286047000.5,N
1649674615.1,286047002.4,N
1649674635.9,286047002.7,N
1649674655.7,286046999.9,N
1649674675.5,286047000.2,N
1649674695.4,286047000.6,N
1649674715.2,286046999.7,N
1649674735.0,286047000.3,N
1649674736.0,286047000.3,N
1649674755.8,286046998.8,N
1649674775.6,286046999.9,N
1649674795.5,286046999.3,N
